This is the latest recevied weather packets stored in our database for station/object SR9WXP. If no packets are shown the sender has not sent any weather packets the latest 1 day(s).
| Time | Temp. | Humidity | Pressure | Rain* | Wind** | Luminosity | Snow |
|---|---|---|---|---|---|---|---|
| 1778019476 | 8.33° C | 62% | 849 hPa | - | 6.26 m/s, 170° | - | - |
| 1778019358 | 8.33° C | 62% | 849 hPa | - | 5.81 m/s, 167° | - | - |
| 1778019238 | 8.33° C | 62% | 849 hPa | - | 6.26 m/s, 170° | - | - |
| 1778019176 | 8.33° C | 62% | 849.1 hPa | - | 5.81 m/s, 176° | - | - |
| 1778019117 | 8.33° C | 62% | 849.1 hPa | - | 5.81 m/s, 174° | - | - |
| 1778018996 | 8.33° C | 62% | 849.1 hPa | - | 4.92 m/s, 171° | - | - |
| 1778018873 | 8.33° C | 62% | 849.1 hPa | - | 5.36 m/s, 171° | - | - |
| 1778018754 | 8.33° C | 62% | 849.2 hPa | - | 5.81 m/s, 172° | - | - |
| 1778018633 | 7.78° C | 62% | 849.3 hPa | - | 5.36 m/s, 177° | - | - |
| 1778018573 | 7.78° C | 62% | 849.3 hPa | - | 5.36 m/s, 178° | - | - |
| 1778018510 | 7.78° C | 62% | 849.3 hPa | - | 4.92 m/s, 176° | - | - |
| 1778018390 | 7.78° C | 62% | 849.3 hPa | - | 4.47 m/s, 176° | - | - |
| 1778018266 | 7.78° C | 62% | 849.4 hPa | - | 4.02 m/s, 172° | - | - |
| 1778018148 | 7.78° C | 62% | 849.4 hPa | - | 4.02 m/s, 168° | - | - |
| 1778018028 | 7.78° C | 62% | 849.4 hPa | - | 4.02 m/s, 167° | - | - |
| 1778017966 | 7.78° C | 62% | 849.5 hPa | - | 4.02 m/s, 173° | - | - |
| 1778017908 | 7.78° C | 62% | 849.5 hPa | - | 4.47 m/s, 172° | - | - |
| 1778017788 | 7.78° C | 62% | 849.5 hPa | - | 4.02 m/s, 168° | - | - |
| 1778017663 | 8.33° C | 61% | 849.5 hPa | - | 3.58 m/s, 171° | - | - |
| 1778017545 | 8.33° C | 61% | 849.5 hPa | - | 3.58 m/s, 169° | - | - |
| 1778017425 | 8.33° C | 61% | 849.5 hPa | - | 3.58 m/s, 166° | - | - |
| 1778017364 | 8.33° C | 61% | 849.5 hPa | - | 3.58 m/s, 175° | - | - |
| 1778017305 | 8.33° C | 61% | 849.5 hPa | - | 3.58 m/s, 173° | - | - |
| 1778017184 | 8.33° C | 61% | 849.5 hPa | - | 3.58 m/s, 170° | - | - |
| 1778017061 | 8.33° C | 61% | 849.4 hPa | - | 3.58 m/s, 171° | - | - |
* Rain since midnight (hover to see other rain measurements)
** Current wind speed in m/s (hover to see current wind gust speed)